星链-35668(STARLINK-35668)

导读

STARLINK-35668是美国太空探索技术公司星链星座的一员,于2025年11月8日发射升空。星链项目旨在构建全球卫星互联网星座,为全球偏远地区、海洋上空等网络覆盖盲区提供高速宽带服务,该卫星入轨后将进一步扩充星链星座的卫星规模,提升星座整体服务覆盖能力与通信容量。

Basic Information
目录编号:
66401
目录名称:
STARLINK-35668
国际标识:
2025-257X
轨道中心:
EARTH
卫星名称:
星链-35668
卫星全名:
星链-35668(STARLINK-35668)
卫星状态:
在轨 (已飞行217 天)
发射日期:
2025-11-08 UTC
国别 :
美国 (US)
星等 :
--
Orbit Information
数据来源 国际轨道数据 AOE轨道数据
星历时间 2026-06-12T13:03:12+0800
1天前
查看轨道信息
2026-06-08T23:00:00+0800
4天前
查看轨道信息
半长轴 6840.823km 6840.91km
偏心率 0.0001207 0.0001226
轨道倾角 53.156° 53.157°
近地点辐角 92.188° 78.220°
升交点赤经 136.662° 153.427°
平近点角 267.926° 264.856°
近地点 461.86km 461.934km
远地点 463.512km 463.612km
周期 93.847分钟 93.849分钟
每日圈数 15.344059 15.343768
Detailed Information
固有亮度:
5
最大亮度:
2.5
卫星平台:
Starlink V1.0
覆盖范围:
全球
运营商:
太空探索技术公司
运营商所在国:
美国
制造商(研发单位):
太空探索技术公司
制造商所在国:
美国
使用方式:
暂无
Satellite Introduction
Starlink 计划是 SpaceX 推出的全球卫星互联网项目,通过发射低轨道卫星,为全球尤其是偏远地区提供高速、低延迟的互联网服务。自 2019 年起,Starlink 已部署数千颗卫星,旨在缩小全球数字鸿沟,推动互联网普及。该项目还为军事、航空等行业提供通信支持,带来广泛经济效益。
2D Orbit Map
3D Orbit Map
Orbit Altitude Analysis Chart
Orbit Inclination Analysis Chart
Orbit Comprehensive Analysis Chart
View Comprehensive Chart